"read_dt","SO2 (ppb)","flags","PMT voltage (V)","lamp voltage (V)","lamp intensity (Hz)","internal temp (C)","react chamber temp (C)","sample flow (l/min)","pres (mmHg)","SO2 bkg (ppb)","SO2 coefficient"
2014-04-06 00:00:00,3706E-2,5C000490,-0724,1249,8107,027.7,045.3,0.147,747.8,01.17,0.508
2014-04-06 00:01:00,3746E-2,5C000490,-0724,1248,8105,027.7,045.3,0.146,747.8,01.17,0.508
2014-04-06 00:02:00,3721E-2,5C000490,-0724,1249,8101,027.7,045.3,0.146,747.7,01.17,0.508
2014-04-06 00:03:00,3751E-2,5C000490,-0724,1248,8231,027.7,045.3,0.147,747.7,01.17,0.508
2014-04-06 00:04:00,3752E-2,5C000490,-0724,1247,8081,027.6,045.3,0.146,747.7,01.17,0.508
2014-04-06 00:05:00,3736E-2,5C000490,-0724,1248,8070,027.6,045.3,0.146,747.7,01.17,0.508
2014-04-06 00:06:00,3704E-2,5C000490,-0724,1247,8014,027.7,045.3,0.146,747.7,01.17,0.508
2014-04-06 00:07:00,3699E-2,5C000490,-0724,1247,8030,027.7,045.3,0.146,747.6,01.17,0.508
2014-04-06 00:08:00,3747E-2,5C000490,-0724,1246,8201,027.7,045.2,0.146,747.5,01.17,0.508
2014-04-06 00:09:00,3696E-2,5C000490,-0724,1246,8079,027.7,045.3,0.146,747.7,01.17,0.508
2014-04-06 00:10:00,3693E-2,5C000490,-0724,1246,8074,027.6,045.3,0.146,747.5,01.17,0.508
2014-04-06 00:11:00,3648E-2,5C000490,-0724,1247,8088,027.6,045.3,0.146,747.6,01.17,0.508
2014-04-06 00:12:00,3719E-2,5C000490,-0724,1245,8201,027.6,045.3,0.147,747.6,01.17,0.508
2014-04-06 00:13:00,3756E-2,5C000490,-0724,1245,8089,027.6,045.3,0.146,747.6,01.17,0.508
2014-04-06 00:14:00,3715E-2,5C000490,-0724,1246,7953,027.7,045.3,0.146,747.7,01.17,0.508
2014-04-06 00:15:00,3752E-2,5C000490,-0724,1246,8029,027.6,045.3,0.147,747.5,01.17,0.508
2014-04-06 00:16:00,3717E-2,5C000490,-0724,1246,8134,027.6,045.3,0.147,747.5,01.17,0.508
2014-04-06 00:17:00,3740E-2,5C000490,-0724,1245,8054,027.6,045.3,0.147,747.4,01.17,0.508
2014-04-06 00:18:00,3742E-2,5C000490,-0724,1245,8181,027.6,045.3,0.147,747.5,01.17,0.508
2014-04-06 00:19:00,3717E-2,5C000490,-0724,1246,8100,027.7,045.3,0.146,747.5,01.17,0.508
2014-04-06 00:20:00,3714E-2,5C000490,-0724,1244,8138,027.6,045.3,0.146,747.5,01.17,0.508
2014-04-06 00:21:00,3705E-2,5C000490,-0724,1246,8172,027.6,045.3,0.147,747.5,01.17,0.508
2014-04-06 00:22:00,3720E-2,5C000490,-0724,1244,8098,027.6,045.3,0.147,747.4,01.17,0.508
2014-04-06 00:23:00,3713E-2,5C000490,-0724,1244,8062,027.6,045.3,0.147,747.5,01.17,0.508
2014-04-06 00:24:00,3716E-2,5C000490,-0724,1244,8177,027.6,045.3,0.147,747.5,01.17,0.508
2014-04-06 00:25:00,3766E-2,5C000490,-0724,1242,8223,027.6,045.3,0.147,747.3,01.17,0.508
2014-04-06 00:26:00,3759E-2,5C000490,-0724,1243,8113,027.6,045.3,0.147,747.4,01.17,0.508
2014-04-06 00:27:00,3744E-2,5C000490,-0724,1243,8143,027.6,045.3,0.147,747.4,01.17,0.508
2014-04-06 00:28:00,3739E-2,5C000490,-0724,1243,8029,027.6,045.3,0.147,747.3,01.17,0.508
2014-04-06 00:29:00,3666E-2,5C000490,-0724,1243,8117,027.6,045.3,0.147,747.4,01.17,0.508
2014-04-06 00:30:00,3699E-2,5C000490,-0724,1244,8127,027.6,045.3,0.146,747.4,01.17,0.508
2014-04-06 00:31:00,3717E-2,5C000490,-0724,1243,8172,027.6,045.3,0.147,747.4,01.17,0.508
2014-04-06 00:32:00,3693E-2,5C000490,-0724,1242,8215,027.6,045.2,0.147,747.2,01.17,0.508
2014-04-06 00:33:00,3697E-2,5C000490,-0724,1243,8228,027.6,045.3,0.147,747.4,01.17,0.508
2014-04-06 00:34:00,3659E-2,5C000490,-0724,1242,8169,027.6,045.3,0.147,747.4,01.17,0.508
2014-04-06 00:35:00,3720E-2,5C000490,-0724,1242,8224,027.6,045.3,0.147,747.5,01.17,0.508
2014-04-06 00:36:00,3769E-2,5C000490,-0724,1241,8082,027.6,045.3,0.146,747.4,01.17,0.508
2014-04-06 00:37:00,3731E-2,5C000490,-0724,1242,8081,027.6,045.3,0.147,747.5,01.17,0.508
2014-04-06 00:38:00,3690E-2,5C000490,-0724,1242,8178,027.6,045.3,0.147,747.4,01.17,0.508
2014-04-06 00:39:00,3698E-2,5C000490,-0724,1242,8182,027.6,045.3,0.146,747.5,01.17,0.508
2014-04-06 00:40:00,3757E-2,5C000490,-0724,1241,8175,027.6,045.3,0.147,747.4,01.17,0.508
2014-04-06 00:41:00,3722E-2,5C000490,-0724,1242,8116,027.6,045.3,0.147,747.5,01.17,0.508
2014-04-06 00:42:00,3703E-2,5C000490,-0724,1242,8196,027.6,045.3,0.147,747.5,01.17,0.508
2014-04-06 00:43:00,3697E-2,5C000490,-0724,1242,8207,027.6,045.3,0.147,747.5,01.17,0.508
2014-04-06 00:44:00,3742E-2,5C000490,-0724,1242,8095,027.6,045.3,0.147,747.4,01.17,0.508
2014-04-06 00:45:00,3732E-2,5C000490,-0724,1242,8145,027.6,045.3,0.147,747.5,01.17,0.508
2014-04-06 00:46:00,3715E-2,5C000490,-0724,1242,8226,027.6,045.3,0.147,747.5,01.17,0.508
2014-04-06 00:47:00,3698E-2,5C000490,-0724,1242,8289,027.6,045.3,0.147,747.5,01.17,0.508
2014-04-06 00:48:00,3733E-2,5C000490,-0724,1242,8158,027.6,045.3,0.147,747.4,01.17,0.508
2014-04-06 00:49:00,3701E-2,5C000490,-0724,1243,8130,027.6,045.3,0.147,747.4,01.17,0.508
2014-04-06 00:50:00,3684E-2,5C000490,-0724,1242,8101,027.6,045.3,0.147,747.4,01.17,0.508
2014-04-06 00:51:00,3688E-2,5C000490,-0724,1241,8124,027.6,045.3,0.147,747.4,01.17,0.508
2014-04-06 00:52:00,3725E-2,5C000490,-0724,1241,8145,027.6,045.3,0.147,747.4,01.17,0.508
2014-04-06 00:53:00,3694E-2,5C000490,-0724,1243,8086,027.6,045.3,0.147,747.4,01.17,0.508
2014-04-06 00:54:00,3692E-2,5C000490,-0724,1241,8199,027.6,045.3,0.147,747.4,01.17,0.508
2014-04-06 00:55:00,3687E-2,5C000490,-0724,1242,8147,027.6,045.3,0.147,747.5,01.17,0.508
2014-04-06 00:56:00,3694E-2,5C000490,-0724,1242,8008,027.6,045.3,0.147,747.5,01.17,0.508
2014-04-06 00:57:00,3696E-2,5C000490,-0724,1242,8248,027.6,045.3,0.147,747.5,01.17,0.508
2014-04-06 00:58:00,3761E-2,5C000490,-0724,1240,8109,027.6,045.3,0.147,747.6,01.17,0.508
2014-04-06 00:59:00,3720E-2,5C000490,-0724,1241,8166,027.6,045.3,0.147,747.5,01.17,0.508
2014-04-06 01:00:00,3703E-2,5C000490,-0724,1240,8168,027.6,045.3,0.147,747.5,01.17,0.508
2014-04-06 01:01:00,3704E-2,5C000490,-0724,1241,8231,027.6,045.3,0.147,747.5,01.17,0.508
2014-04-06 01:02:00,3680E-2,5C000490,-0724,1241,8162,027.6,045.3,0.147,747.6,01.17,0.508
2014-04-06 01:03:00,3732E-2,5C000490,-0724,1240,8154,027.6,045.3,0.147,747.6,01.17,0.508
2014-04-06 01:04:00,3723E-2,5C000490,-0724,1240,8147,027.6,045.3,0.147,747.6,01.17,0.508
2014-04-06 01:05:00,3710E-2,5C000490,-0724,1241,8086,027.6,045.3,0.147,747.6,01.17,0.508
2014-04-06 01:06:00,3677E-2,5C000490,-0724,1240,8152,027.6,045.3,0.147,747.6,01.17,0.508
2014-04-06 01:07:00,3676E-2,5C000490,-0724,1240,8111,027.6,045.3,0.147,747.5,01.17,0.508
2014-04-06 01:08:00,3675E-2,5C000490,-0724,1241,8162,027.6,045.3,0.147,747.5,01.17,0.508
2014-04-06 01:09:00,3652E-2,5C000490,-0724,1239,8137,027.6,045.3,0.147,747.5,01.17,0.508
2014-04-06 01:10:00,3705E-2,5C000490,-0724,1238,8104,027.6,045.3,0.147,747.5,01.17,0.508
2014-04-06 01:11:00,3710E-2,5C000490,-0724,1240,8245,027.6,045.3,0.147,747.5,01.17,0.508
2014-04-06 01:12:00,3712E-2,5C000490,-0724,1239,8102,027.6,045.3,0.147,747.4,01.17,0.508
2014-04-06 01:13:00,3689E-2,5C000490,-0724,1240,8241,027.6,045.3,0.147,747.4,01.17,0.508
2014-04-06 01:14:00,3680E-2,5C000490,-0724,1240,8292,027.6,045.3,0.147,747.4,01.17,0.508
2014-04-06 01:15:00,3721E-2,5C000490,-0724,1239,8199,027.6,045.3,0.147,747.4,01.17,0.508
2014-04-06 01:16:00,3715E-2,5C000490,-0724,1240,8055,027.6,045.3,0.147,747.3,01.17,0.508
2014-04-06 01:17:00,3724E-2,5C000490,-0724,1239,8273,027.7,045.2,0.147,747.4,01.17,0.508
2014-04-06 01:18:00,3722E-2,5C000490,-0724,1239,8139,027.6,045.3,0.147,747.3,01.17,0.508
2014-04-06 01:19:00,3659E-2,5C000490,-0724,1241,8153,027.6,045.3,0.147,747.4,01.17,0.508
2014-04-06 01:20:00,3729E-2,5C000490,-0724,1240,8177,027.6,045.3,0.146,747.3,01.17,0.508
2014-04-06 01:21:00,3739E-2,5C000490,-0724,1239,8173,027.6,045.3,0.147,747.3,01.17,0.508
2014-04-06 01:22:00,3731E-2,5C000490,-0724,1240,8149,027.6,045.3,0.147,747.4,01.17,0.508
2014-04-06 01:23:00,3719E-2,5C000490,-0724,1239,8161,027.6,045.3,0.147,747.4,01.17,0.508
2014-04-06 01:24:00,3708E-2,5C000490,-0724,1240,8200,027.6,045.3,0.147,747.4,01.17,0.508
2014-04-06 01:25:00,3711E-2,5C000490,-0724,1240,8155,027.7,045.3,0.147,747.4,01.17,0.508
2014-04-06 01:26:00,3705E-2,5C000490,-0724,1239,8188,027.6,045.3,0.147,747.4,01.17,0.508
2014-04-06 01:27:00,3671E-2,5C000490,-0724,1239,8149,027.6,045.3,0.147,747.3,01.17,0.508
2014-04-06 01:28:00,3728E-2,5C000490,-0724,1238,8234,027.6,045.3,0.147,747.4,01.17,0.508
2014-04-06 01:29:00,3690E-2,5C000490,-0724,1237,8305,027.6,045.3,0.146,747.4,01.17,0.508
2014-04-06 01:30:00,3654E-2,5C000490,-0724,1238,8197,027.6,045.3,0.147,747.4,01.17,0.508
2014-04-06 01:31:00,3709E-2,5C000490,-0724,1237,8139,027.6,045.3,0.147,747.4,01.17,0.508
2014-04-06 01:32:00,3763E-2,5C000490,-0724,1236,8139,027.6,045.3,0.147,747.3,01.17,0.508
2014-04-06 01:33:00,3704E-2,5C000490,-0724,1238,8123,027.6,045.3,0.147,747.4,01.17,0.508
2014-04-06 01:34:00,3715E-2,5C000490,-0724,1237,8305,027.6,045.3,0.146,747.3,01.17,0.508
2014-04-06 01:35:00,3669E-2,5C000490,-0724,1238,8239,027.7,045.3,0.146,747.3,01.17,0.508
2014-04-06 01:36:00,3672E-2,5C000490,-0724,1238,8283,027.7,045.3,0.147,747.3,01.17,0.508
2014-04-06 01:37:00,3706E-2,5C000490,-0724,1238,8050,027.7,045.3,0.147,747.3,01.17,0.508
2014-04-06 01:38:00,3693E-2,5C000490,-0724,1236,8224,027.6,045.3,0.146,747.3,01.17,0.508
2014-04-06 01:39:00,3717E-2,5C000490,-0724,1238,8278,027.7,045.3,0.147,747.3,01.17,0.508
2014-04-06 01:40:00,3700E-2,5C000490,-0724,1236,8183,027.7,045.3,0.147,747.2,01.17,0.508
2014-04-06 01:41:00,3694E-2,5C000490,-0724,1236,8216,027.6,045.3,0.147,747.3,01.17,0.508
2014-04-06 01:42:00,3721E-2,5C000490,-0724,1235,8217,027.7,045.3,0.146,747.2,01.17,0.508
2014-04-06 01:43:00,3681E-2,5C000490,-0724,1236,8191,027.7,045.3,0.146,747.2,01.17,0.508
2014-04-06 01:44:00,3663E-2,5C000490,-0724,1236,8219,027.7,045.3,0.146,747.3,01.17,0.508
2014-04-06 01:45:00,3725E-2,5C000490,-0724,1236,8203,027.7,045.3,0.146,747.1,01.17,0.508
2014-04-06 01:46:00,3748E-2,5C000490,-0724,1235,8136,027.7,045.3,0.146,747.2,01.17,0.508
2014-04-06 01:47:00,3744E-2,5C000490,-0724,1236,8262,027.7,045.3,0.146,747.2,01.17,0.508
2014-04-06 01:48:00,3696E-2,5C000490,-0724,1236,8097,027.7,045.3,0.146,747.2,01.17,0.508
2014-04-06 01:49:00,3707E-2,5C000490,-0724,1236,8183,027.7,045.3,0.146,747.2,01.17,0.508
2014-04-06 01:50:00,3710E-2,5C000490,-0724,1237,8243,027.7,045.3,0.146,747.2,01.17,0.508
2014-04-06 01:51:00,3676E-2,5C000490,-0724,1237,8215,027.7,045.3,0.146,747.1,01.17,0.508
2014-04-06 01:52:00,3696E-2,5C000490,-0724,1236,8263,027.7,045.3,0.146,747.2,01.17,0.508
2014-04-06 01:53:00,3696E-2,5C000490,-0724,1235,8239,027.7,045.3,0.146,747.2,01.17,0.508
2014-04-06 01:54:00,3681E-2,5C000490,-0724,1235,8194,027.7,045.3,0.146,747.2,01.17,0.508
2014-04-06 01:55:00,3705E-2,5C000490,-0724,1235,8249,027.7,045.3,0.146,747.1,01.17,0.508
2014-04-06 01:56:00,3662E-2,5C000490,-0724,1235,8310,027.7,045.3,0.146,747.2,01.17,0.508
2014-04-06 01:57:00,3727E-2,5C000490,-0724,1235,8333,027.7,045.3,0.146,747.2,01.17,0.508
2014-04-06 01:58:00,3665E-2,5C000490,-0724,1236,8271,027.7,045.3,0.146,747.2,01.17,0.508
2014-04-06 01:59:00,3688E-2,5C000490,-0724,1236,8195,027.7,045.3,0.146,747.3,01.17,0.508
2014-04-06 02:00:00,3668E-2,5C000490,-0724,1235,8221,027.7,045.3,0.146,747.3,01.17,0.508
2014-04-06 02:01:00,3684E-2,5C000490,-0724,1236,8297,027.7,045.3,0.146,747.2,01.17,0.508
2014-04-06 02:02:00,3717E-2,5C000490,-0724,1236,8139,027.7,045.3,0.146,747.2,01.17,0.508
2014-04-06 02:03:00,3762E-2,5C000490,-0724,1235,8127,027.7,045.3,0.146,747.1,01.17,0.508
2014-04-06 02:04:00,3752E-2,5C000490,-0724,1234,8229,027.7,045.3,0.146,747.1,01.17,0.508
2014-04-06 02:05:00,3774E-2,5C000490,-0724,1233,8243,027.7,045.3,0.146,747.1,01.17,0.508
2014-04-06 02:06:00,3865E-2,5C000490,-0724,1234,8268,027.7,045.3,0.146,747.0,01.17,0.508
2014-04-06 02:07:00,3845E-2,5C000490,-0724,1233,8137,027.7,045.3,0.146,747.1,01.17,0.508
2014-04-06 02:08:00,3873E-2,5C000490,-0724,1233,8316,027.7,045.3,0.146,747.1,01.17,0.508
2014-04-06 02:09:00,3865E-2,5C000490,-0724,1233,8303,027.7,045.3,0.146,747.1,01.17,0.508
2014-04-06 02:10:00,3836E-2,5C000490,-0724,1232,8255,027.7,045.3,0.146,747.1,01.17,0.508
2014-04-06 02:11:00,3866E-2,5C000490,-0724,1233,8192,027.7,045.3,0.146,747.1,01.17,0.508
2014-04-06 02:12:00,3815E-2,5C000490,-0724,1232,8294,027.7,045.3,0.146,747.0,01.17,0.508
2014-04-06 02:13:00,3857E-2,5C000490,-0724,1232,8268,027.7,045.3,0.146,747.0,01.17,0.508
2014-04-06 02:14:00,3819E-2,5C000490,-0724,1231,8294,027.7,045.3,0.146,747.1,01.17,0.508
2014-04-06 02:15:00,3844E-2,5C000490,-0724,1232,8315,027.7,045.3,0.146,747.1,01.17,0.508
2014-04-06 02:16:00,3873E-2,5C000490,-0724,1231,8359,027.7,045.3,0.146,747.1,01.17,0.508
2014-04-06 02:17:00,3777E-2,5C000490,-0724,1232,8159,027.7,045.3,0.146,747.0,01.17,0.508
2014-04-06 02:18:00,3842E-2,5C000490,-0724,1232,8129,027.7,045.3,0.146,747.0,01.17,0.508
2014-04-06 02:19:00,3816E-2,5C000490,-0724,1233,8088,027.7,045.3,0.146,747.0,01.17,0.508
2014-04-06 02:20:00,3760E-2,5C000490,-0724,1232,8278,027.7,045.3,0.146,746.9,01.17,0.508
2014-04-06 02:21:00,3837E-2,5C000490,-0724,1232,8094,027.7,045.3,0.146,747.0,01.17,0.508
2014-04-06 02:22:00,3856E-2,5C000490,-0724,1231,8260,027.7,045.3,0.146,747.0,01.17,0.508
2014-04-06 02:23:00,3793E-2,5C000490,-0724,1231,8195,027.8,045.3,0.146,747.0,01.17,0.508
2014-04-06 02:24:00,3787E-2,5C000490,-0724,1232,8296,027.7,045.3,0.146,747.0,01.17,0.508
2014-04-06 02:25:00,3758E-2,5C000490,-0724,1231,8256,027.8,045.3,0.146,747.0,01.17,0.508
2014-04-06 02:26:00,3797E-2,5C000490,-0724,1227,8379,027.7,045.3,0.146,747.0,01.17,0.508
2014-04-06 02:27:00,3869E-2,5C000490,-0724,1215,8488,027.8,045.3,0.146,747.0,01.17,0.508
2014-04-06 02:28:00,3805E-2,5C000490,-0724,1206,8483,027.7,045.3,0.146,747.0,01.17,0.508
2014-04-06 02:29:00,3825E-2,5C000410,-0724,1197,8683,027.8,045.3,0.146,746.9,01.17,0.508
2014-04-06 02:30:00,3875E-2,5C000410,-0724,1189,8651,027.7,045.3,0.146,746.9,01.17,0.508
2014-04-06 02:31:00,3762E-2,5C000410,-0724,1183,8803,027.7,045.3,0.146,747.0,01.17,0.508
2014-04-06 02:32:00,3762E-2,5C000410,-0724,1181,8817,027.8,045.3,0.146,746.8,01.17,0.508
2014-04-06 02:33:00,3767E-2,5C000410,-0724,1179,8860,027.7,045.3,0.146,747.0,01.17,0.508
2014-04-06 02:34:00,3739E-2,5C000410,-0724,1177,8820,027.8,045.3,0.146,746.9,01.17,0.508
2014-04-06 02:35:00,3735E-2,5C000410,-0724,1178,8771,027.8,045.3,0.146,746.9,01.17,0.508
2014-04-06 02:36:00,3767E-2,5C000410,-0724,1179,8825,027.8,045.3,0.146,746.9,01.17,0.508
2014-04-06 02:37:00,3765E-2,5C000410,-0724,1181,8734,027.8,045.3,0.146,746.7,01.17,0.508
2014-04-06 02:38:00,3760E-2,5C000410,-0724,1185,8609,027.8,045.3,0.146,746.8,01.17,0.508
2014-04-06 02:39:00,3820E-2,5C000410,-0724,1188,8606,027.8,045.3,0.146,746.8,01.17,0.508
2014-04-06 02:40:00,3815E-2,5C000410,-0724,1192,8578,027.8,045.3,0.146,746.8,01.17,0.508
2014-04-06 02:41:00,3801E-2,5C000410,-0724,1194,8562,027.8,045.3,0.146,746.7,01.17,0.508
2014-04-06 02:42:00,3819E-2,5C000410,-0724,1197,8429,027.8,045.3,0.146,746.7,01.17,0.508
2014-04-06 02:43:00,3806E-2,5C000410,-0724,1201,8292,027.8,045.3,0.146,746.7,01.17,0.508
2014-04-06 02:44:00,3832E-2,5C000490,-0724,1204,8519,027.8,045.3,0.146,746.7,01.17,0.508
2014-04-06 02:45:00,3783E-2,5C000490,-0724,1207,8499,027.8,045.3,0.146,746.7,01.17,0.508
2014-04-06 02:46:00,3811E-2,5C000490,-0724,1210,8542,027.8,045.3,0.146,746.7,01.17,0.508
2014-04-06 02:47:00,3894E-2,5C000490,-0724,1211,8364,027.8,045.3,0.146,746.7,01.17,0.508
2014-04-06 02:48:00,3831E-2,5C000490,-0724,1214,8353,027.8,045.3,0.146,746.6,01.17,0.508
2014-04-06 02:49:00,3829E-2,5C000490,-0724,1217,8423,027.8,045.3,0.146,746.6,01.17,0.508
2014-04-06 02:50:00,3911E-2,5C000490,-0724,1218,8250,027.8,045.3,0.146,746.6,01.17,0.508
2014-04-06 02:51:00,3872E-2,5C000490,-0724,1221,8422,027.8,045.3,0.146,746.7,01.17,0.508
2014-04-06 02:52:00,3844E-2,5C000490,-0724,1222,8418,027.8,045.3,0.146,746.7,01.17,0.508
2014-04-06 02:53:00,3871E-2,5C000490,-0724,1223,8240,027.8,045.3,0.146,746.7,01.17,0.508
2014-04-06 02:54:00,3863E-2,5C000490,-0724,1223,8397,027.8,045.3,0.146,746.7,01.17,0.508
2014-04-06 02:55:00,3899E-2,5C000490,-0724,1226,8271,027.8,045.3,0.146,746.7,01.17,0.508
2014-04-06 02:56:00,3825E-2,5C000490,-0724,1226,8441,027.8,045.3,0.146,746.7,01.17,0.508
2014-04-06 02:57:00,3874E-2,5C000490,-0724,1226,8388,027.8,045.3,0.146,746.6,01.17,0.508
2014-04-06 02:58:00,3868E-2,5C000490,-0724,1225,8315,027.8,045.3,0.146,746.7,01.17,0.508
2014-04-06 02:59:00,3843E-2,5C000490,-0724,1227,8231,027.8,045.3,0.146,746.7,01.17,0.508
2014-04-06 03:00:00,3842E-2,5C000490,-0724,1227,8309,027.8,045.3,0.146,746.6,01.17,0.508
2014-04-06 03:01:00,3835E-2,5C000490,-0724,1227,8341,027.8,045.3,0.146,746.6,01.17,0.508
2014-04-06 03:02:00,3819E-2,5C000490,-0724,1227,8387,027.8,045.3,0.146,746.7,01.17,0.508
2014-04-06 03:03:00,3825E-2,5C000490,-0724,1227,8249,027.9,045.3,0.146,746.5,01.17,0.508
2014-04-06 03:04:00,3868E-2,5C000490,-0724,1228,8124,027.8,045.3,0.146,746.5,01.17,0.508
2014-04-06 03:05:00,3832E-2,5C000490,-0724,1230,8285,027.9,045.3,0.146,746.5,01.17,0.508
2014-04-06 03:06:00,3830E-2,5C000490,-0724,1229,8145,027.9,045.3,0.146,746.5,01.17,0.508
2014-04-06 03:07:00,3842E-2,5C000490,-0724,1229,8236,027.9,045.3,0.146,746.6,01.17,0.508
2014-04-06 03:08:00,3849E-2,5C000490,-0724,1228,8292,027.9,045.3,0.146,746.5,01.17,0.508
2014-04-06 03:09:00,3821E-2,5C000490,-0724,1229,8355,027.9,045.3,0.146,746.5,01.17,0.508
2014-04-06 03:10:00,3796E-2,5C000490,-0724,1229,8354,027.8,045.3,0.146,746.5,01.17,0.508
2014-04-06 03:11:00,3829E-2,5C000490,-0724,1230,8164,027.9,045.3,0.146,746.5,01.17,0.508
2014-04-06 03:12:00,3785E-2,5C000490,-0724,1229,8317,027.9,045.3,0.146,746.5,01.17,0.508
2014-04-06 03:13:00,3804E-2,5C000490,-0724,1230,8173,027.9,045.3,0.146,746.5,01.17,0.508
2014-04-06 03:14:00,3860E-2,5C000490,-0724,1229,8221,027.9,045.3,0.146,746.5,01.17,0.508
2014-04-06 03:15:00,3783E-2,5C000490,-0724,1228,8204,027.9,045.3,0.146,746.5,01.17,0.508
2014-04-06 03:16:00,3800E-2,5C000490,-0724,1229,8249,027.9,045.3,0.146,746.5,01.17,0.508
2014-04-06 03:17:00,3833E-2,5C000490,-0724,1230,8282,027.9,045.3,0.146,746.5,01.17,0.508
2014-04-06 03:18:00,3817E-2,5C000490,-0724,1230,8266,027.9,045.3,0.146,746.4,01.17,0.508
2014-04-06 03:19:00,3787E-2,5C000490,-0724,1229,8236,027.9,045.3,0.146,746.5,01.17,0.508
2014-04-06 03:20:00,3755E-2,5C000490,-0724,1229,8222,027.9,045.3,0.146,746.5,01.17,0.508
2014-04-06 03:21:00,3764E-2,5C000490,-0724,1229,8313,027.9,045.3,0.146,746.5,01.17,0.508
2014-04-06 03:22:00,3835E-2,5C000490,-0724,1230,8190,027.9,045.3,0.146,746.5,01.17,0.508
2014-04-06 03:23:00,3808E-2,5C000490,-0724,1229,8213,027.9,045.3,0.146,746.5,01.17,0.508
2014-04-06 03:24:00,3820E-2,5C000490,-0724,1230,8191,027.9,045.3,0.146,746.5,01.17,0.508
2014-04-06 03:25:00,3793E-2,5C000490,-0724,1230,8316,027.9,045.3,0.146,746.5,01.17,0.508
2014-04-06 03:26:00,3820E-2,5C000490,-0724,1229,8278,027.9,045.3,0.146,746.5,01.17,0.508
2014-04-06 03:27:00,3838E-2,5C000490,-0724,1230,8368,027.9,045.3,0.146,746.5,01.17,0.508
2014-04-06 03:28:00,3832E-2,5C000490,-0724,1230,8343,027.9,045.3,0.146,746.5,01.17,0.508
2014-04-06 03:29:00,3862E-2,5C000490,-0724,1230,8249,027.9,045.3,0.146,746.3,01.17,0.508
2014-04-06 03:30:00,3826E-2,5C000490,-0724,1230,8326,027.9,045.3,0.146,746.5,01.17,0.508
2014-04-06 03:31:00,3825E-2,5C000490,-0724,1230,8143,027.9,045.3,0.145,746.2,01.17,0.508
2014-04-06 03:32:00,3803E-2,5C000490,-0724,1230,8340,027.9,045.3,0.145,746.3,01.17,0.508
2014-04-06 03:33:00,3871E-2,5C000490,-0724,1230,8293,028.0,045.3,0.145,746.3,01.17,0.508
2014-04-06 03:34:00,3846E-2,5C000490,-0724,1229,8309,028.0,045.3,0.145,746.3,01.17,0.508
2014-04-06 03:35:00,3785E-2,5C000490,-0724,1230,8281,028.0,045.3,0.146,746.3,01.17,0.508
2014-04-06 03:36:00,3800E-2,5C000490,-0724,1230,8239,028.0,045.3,0.145,746.2,01.17,0.508
2014-04-06 03:37:00,3797E-2,5C000490,-0724,1230,8190,027.9,045.3,0.145,746.1,01.17,0.508
2014-04-06 03:38:00,3819E-2,5C000490,-0724,1231,8332,028.0,045.3,0.145,746.0,01.17,0.508
2014-04-06 03:39:00,3834E-2,5C000490,-0724,1230,8307,028.0,045.3,0.146,746.0,01.17,0.508
2014-04-06 03:40:00,3784E-2,5C000490,-0724,1230,8294,028.0,045.3,0.145,745.9,01.17,0.508
2014-04-06 03:41:00,3760E-2,5C000490,-0724,1229,8281,027.9,045.3,0.145,746.1,01.17,0.508
2014-04-06 03:42:00,3792E-2,5C000490,-0724,1230,8386,028.0,045.3,0.145,746.0,01.17,0.508
2014-04-06 03:43:00,3866E-2,5C000490,-0724,1229,8200,027.9,045.3,0.145,746.0,01.17,0.508
2014-04-06 03:44:00,3803E-2,5C000490,-0724,1229,8241,027.9,045.3,0.145,746.0,01.17,0.508
2014-04-06 03:45:00,3829E-2,5C000490,-0724,1229,8225,028.0,045.3,0.145,746.0,01.17,0.508
2014-04-06 03:46:00,3764E-2,5C000490,-0724,1229,8130,028.0,045.3,0.145,745.9,01.17,0.508
2014-04-06 03:47:00,3768E-2,5C000490,-0724,1230,8203,028.0,045.3,0.145,746.0,01.17,0.508
2014-04-06 03:48:00,3806E-2,5C000490,-0724,1229,8310,028.0,045.3,0.145,745.9,01.17,0.508
2014-04-06 03:49:00,3795E-2,5C000490,-0724,1229,8215,028.0,045.3,0.145,746.0,01.17,0.508
2014-04-06 03:50:00,3773E-2,5C000490,-0724,1229,8231,027.9,045.3,0.145,746.0,01.17,0.508
2014-04-06 03:51:00,3817E-2,5C000490,-0724,1229,8186,028.0,045.3,0.145,746.1,01.17,0.508
2014-04-06 03:52:00,3787E-2,5C000490,-0724,1227,8432,027.9,045.3,0.146,746.0,01.17,0.508
2014-04-06 03:53:00,3817E-2,5C000490,-0724,1227,8204,027.9,045.3,0.145,746.0,01.17,0.508
2014-04-06 03:54:00,3837E-2,5C000490,-0724,1229,8239,027.9,045.3,0.145,745.9,01.17,0.508
2014-04-06 03:55:00,3790E-2,5C000490,-0724,1227,8082,027.9,045.3,0.145,745.9,01.17,0.508
2014-04-06 03:56:00,3830E-2,5C000490,-0724,1227,8320,027.9,045.3,0.145,745.8,01.17,0.508
2014-04-06 03:57:00,3771E-2,5C000490,-0724,1232,8249,028.0,045.3,0.145,745.9,01.17,0.508
2014-04-06 03:58:00,3775E-2,5C000490,-0724,1238,8196,027.9,045.3,0.145,745.9,01.17,0.508
2014-04-06 03:59:00,3781E-2,5C000490,-0724,1241,8081,027.9,045.3,0.145,745.9,01.17,0.508
2014-04-06 04:00:00,3844E-2,5C000490,-0724,1242,7908,027.9,045.3,0.145,746.1,01.17,0.508
2014-04-06 04:01:00,3814E-2,5C000490,-0724,1243,8070,027.9,045.3,0.146,746.1,01.17,0.508
2014-04-06 04:02:00,3825E-2,5C000490,-0724,1249,7725,027.9,045.3,0.146,746.1,01.17,0.508
2014-04-06 04:03:00,3775E-2,5C000490,-0724,1267,7809,027.9,045.3,0.146,746.1,01.17,0.508
2014-04-06 04:04:00,3789E-2,5C000490,-0724,1270,7834,027.9,045.3,0.145,746.0,01.17,0.508
2014-04-06 04:05:00,3749E-2,5C000490,-0724,1272,7684,027.9,045.3,0.145,746.0,01.17,0.508
2014-04-06 04:06:00,3777E-2,5C000490,-0724,1273,7823,027.9,045.3,0.146,746.0,01.17,0.508
2014-04-06 04:07:00,3790E-2,5C000490,-0724,1272,7757,027.9,045.3,0.146,746.0,01.17,0.508
2014-04-06 04:08:00,3812E-2,5C000490,-0724,1273,7859,027.9,045.3,0.146,745.9,01.17,0.508
2014-04-06 04:09:00,3796E-2,5C000490,-0724,1272,7848,027.9,045.3,0.146,745.9,01.17,0.508
2014-04-06 04:10:00,3772E-2,5C000490,-0724,1274,7879,027.9,045.3,0.146,745.8,01.17,0.508
2014-04-06 04:11:00,3737E-2,5C000490,-0724,1275,7743,027.9,045.3,0.146,745.9,01.17,0.508
2014-04-06 04:12:00,3824E-2,5C000490,-0724,1273,7852,027.9,045.3,0.146,746.0,01.17,0.508
2014-04-06 04:13:00,3767E-2,5C000490,-0724,1273,7768,027.9,045.3,0.146,746.0,01.17,0.508
2014-04-06 04:14:00,3766E-2,5C000490,-0724,1272,7785,027.9,045.3,0.146,745.9,01.17,0.508
2014-04-06 04:15:00,3786E-2,5C000490,-0724,1272,7824,027.9,045.3,0.146,746.0,01.17,0.508
2014-04-06 04:16:00,3787E-2,5C000490,-0724,1272,7758,027.9,045.3,0.145,746.0,01.17,0.508
2014-04-06 04:17:00,3772E-2,5C000490,-0724,1271,7849,027.9,045.3,0.146,745.8,01.17,0.508
2014-04-06 04:18:00,3796E-2,5C000490,-0724,1270,7868,027.9,045.3,0.146,745.9,01.17,0.508
2014-04-06 04:19:00,3772E-2,5C000490,-0724,1272,7837,027.9,045.3,0.146,745.8,01.17,0.508
2014-04-06 04:20:00,3755E-2,5C000490,-0724,1270,7909,027.9,045.3,0.146,745.9,01.17,0.508
2014-04-06 04:21:00,3732E-2,5C000490,-0724,1268,7886,027.9,045.3,0.146,745.8,01.17,0.508
2014-04-06 04:22:00,3792E-2,5C000490,-0724,1270,7824,027.9,045.3,0.145,745.7,01.17,0.508
2014-04-06 04:23:00,3747E-2,5C000490,-0724,1271,7774,027.9,045.3,0.146,745.7,01.17,0.508